EW9763 Weather Reports


Display with metric or nautical units.
time (UTC)temp
F
wind
direction
speed
MPH
gust
MPH
rain 1hr
in
rain 24hr
in
rain mn
in
humidity
%
barometer
mb
20260510063326 40 23 1.0 2.0 0.00 0.00 0.00 78 1013.5
20260510062823 40 23 0.0 2.0 0.00 0.00 0.00 78 1013.5
20260510062322 41 23 0.0 1.0 0.00 0.00 0.00 77 1013.5
20260510062047 41 23 0.0 0.0 0.00 0.00 0.00 76 1013.5
20260510061547 41 23 0.0 0.0 0.00 0.00 0.00 76 1013.4
20260510060813 41 23 0.0 0.0 0.00 0.00 0.00 75 1013.4
20260510060310 41 23 0.0 0.0 0.00 0.00 0.00 75 1013.3
20260510055811 41 23 0.0 0.0 0.00 0.00 0.00 75 1013.3
20260510055539 41 23 0.0 0.0 0.00 0.00 0.00 75 1013.3
20260510054806 41 23 0.0 0.0 0.00 0.00 0.00 75 1013.2
20260510054306 42 23 0.0 0.0 0.00 0.00 0.00 75 1013.2
20260510054039 42 23 0.0 0.0 0.00 0.00 0.00 74 1013.1
20260510053306 42 23 0.0 0.0 0.00 0.00 0.00 74 1013.1
20260510052806 42 23 0.0 0.0 0.00 0.00 0.00 73 1013.1
20260510052259 42 23 0.0 0.0 0.00 0.00 0.00 72 1013.0
20260510052027 42 23 0.0 0.0 0.00 0.00 0.00 71 1012.9
20260510051256 43 23 0.0 0.0 0.00 0.00 0.00 69 1012.8
20260510051027 43 23 0.0 0.0 0.00 0.00 0.00 69 1012.8
20260510050258 43 23 0.0 0.0 0.00 0.00 0.00 70 1012.8
20260510045755 43 23 0.0 1.0 0.00 0.00 0.00 68 1012.7
20260510045520 43 23 0.0 1.0 0.00 0.00 0.00 66 1012.6
20260510045021 44 23 0.0 0.0 0.00 0.00 0.00 63 1012.6
20260510044246 44 23 0.0 0.0 0.00 0.00 0.00 61 1012.5
20260510043745 44 23 0.0 0.0 0.00 0.00 0.00 58 1012.5
20260510043244 44 23 0.0 0.0 0.00 0.00 0.00 57 1012.4
20260510042742 44 23 0.0 0.0 0.00 0.00 0.00 56 1012.3
20260510042240 45 22 0.0 1.0 0.00 0.00 0.00 56 1012.2
20260510041742 45 22 0.0 1.0 0.00 0.00 0.00 53 1012.2
20260510041241 45 22 0.0 0.0 0.00 0.00 0.00 53 1012.1
20260510040738 46 22 0.0 0.0 0.00 0.00 0.00 52 1012.1
20260510040239 46 22 0.0 1.0 0.00 0.00 0.00 52 1012.0
20260510040011 46 22 0.0 2.0 0.00 0.00 0.00 52 1012.0
20260510035506 47 22 1.0 2.0 0.00 0.00 0.00 52 1011.9
20260510035002 47 22 1.0 2.0 0.00 0.00 0.00 51 1011.9
20260510033731 47 28 0.0 0.0 0.00 0.00 0.00 51 1011.7
20260510033232 47 28 0.0 1.0 0.00 0.00 0.00 50 1011.7
20260510032731 47 28 0.0 2.0 0.00 0.00 0.00 50 1011.7
20260510032231 47 28 0.0 2.0 0.00 0.00 0.00 50 1011.7
20260510031726 48 28 0.0 3.0 0.00 0.00 0.00 49 1011.6
20260510031226 48 29 0.0 3.0 0.00 0.00 0.00 49 1011.6
20260510030726 48 30 1.0 6.0 0.00 0.00 0.00 48 1011.6
20260510030228 49 24 2.0 6.0 0.00 0.00 0.00 48 1011.6
20260510025720 49 19 2.0 7.0 0.00 0.00 0.00 48 1011.5
20260510025220 49 15 3.0 9.0 0.00 0.00 0.00 47 1011.5
20260510024718 49 42 3.0 10.0 0.00 0.00 0.00 47 1011.4
20260510024219 50 22 3.0 10.0 0.00 0.00 0.00 47 1011.4
20260510023718 50 35 3.0 11.0 0.00 0.00 0.00 46 1011.3
20260510023219 50 22 4.0 12.0 0.00 0.00 0.00 46 1011.3
20260510022948 51 355 5.0 14.0 0.00 0.00 0.00 46 1011.1
20260510022216 51 5 5.0 14.0 0.00 0.00 0.00 47 1011.1
20260510021720 51 351 6.0 14.0 0.00 0.00 0.00 47 1011.1
20260510021448 51 54 7.0 14.0 0.00 0.00 0.00 47 1010.9
20260510020718 52 319 7.0 16.0 0.00 0.00 0.00 47 1010.8
20260510020216 52 15 8.0 16.0 0.00 0.00 0.00 46 1010.6
20260510015717 52 0 8.0 15.0 0.00 0.00 0.00 46 1010.4
20260510015455 53 311 9.0 22.0 0.00 0.00 0.00 45 1010.2
20260510014718 53 317 7.0 14.0 0.00 0.00 0.00 44 1009.8
20260510014714 53 338 9.0 22.0 0.00 0.00 0.00 44 1010.0
20260510013714 54 5 5.0 11.0 0.00 0.00 0.00 43 1009.5
20260510013445 54 338 4.0 11.0 0.00 0.00 0.00 42 1009.1
20260510012710 54 13 3.0 10.0 0.00 0.00 0.00 42 1008.9
20260510012443 55 342 4.0 8.0 0.00 0.00 0.00 42 1008.8
20260510011705 55 280 4.0 12.0 0.00 0.00 0.00 41 1008.7
20260510011204 55 0 3.0 12.0 0.00 0.00 0.00 41 1008.5
20260510010704 56 340 3.0 8.0 0.00 0.00 0.00 41 1008.4
20260510010204 56 335 3.0 8.0 0.00 0.00 0.00 40 1008.2
20260510005709 57 319 6.0 12.0 0.00 0.00 0.00 39 1008.1
20260510005705 57 344 4.0 12.0 0.00 0.00 0.00 40 1008.2
20260510004705 57 5 5.0 11.0 0.00 0.00 0.00 38 1008.0
20260510004206 58 324 4.0 13.0 0.00 0.00 0.00 38 1007.8
20260510003659 58 355 4.0 13.0 0.00 0.00 0.00 38 1007.8
20260510003206 58 44 5.0 12.0 0.00 0.00 0.00 37 1007.7
20260510002700 58 318 7.0 16.0 0.00 0.00 0.00 36 1007.5
20260510002200 59 27 9.0 16.0 0.00 0.00 0.00 36 1007.4
20260510001701 59 321 9.0 16.0 0.00 0.00 0.00 35 1007.3
20260510001155 59 323 9.0 14.0 0.00 0.00 0.00 36 1007.2
20260510000700 59 320 10.0 15.0 0.00 0.00 0.00 35 1007.1
20260510000157 59 328 9.0 15.0 0.00 0.00 0.00 34 1007.0
20260509235656 59 334 9.0 15.0 0.00 0.00 0.00 34 1006.9
20260509235157 60 314 9.0 16.0 0.00 0.00 0.00 33 1006.8
20260509234702 60 325 9.0 16.0 0.00 0.00 0.00 34 1006.7
20260509234152 60 309 11.0 19.0 0.00 0.00 0.00 33 1006.5
20260509233924 60 338 13.0 19.0 0.00 0.00 0.00 33 1006.4
20260509233153 60 333 14.0 24.0 0.00 0.00 0.00 33 1006.3
20260509232652 60 325 13.0 24.0 0.00 0.00 0.00 34 1006.3
20260509232151 60 321 10.0 21.0 0.00 0.00 0.00 33 1006.1
20260509231653 60 271 9.0 16.0 0.00 0.00 0.00 34 1006.1
20260509231148 60 313 10.0 16.0 0.00 0.00 0.00 35 1006.0
20260509230647 59 306 10.0 14.0 0.00 0.00 0.00 37 1006.0
20260509230149 59 324 10.0 15.0 0.00 0.00 0.00 36 1005.9
20260509225648 59 329 10.0 16.0 0.00 0.00 0.00 36 1005.8
20260509225149 59 309 11.0 17.0 0.00 0.00 0.00 36 1005.7
20260509224649 59 329 11.0 18.0 0.00 0.00 0.00 36 1005.7
20260509224146 60 313 11.0 18.0 0.00 0.00 0.00 36 1005.6
20260509223915 60 328 11.0 16.0 0.00 0.00 0.00 38 1005.5
20260509223155 60 316 11.0 16.0 0.00 0.00 0.00 36 1005.4
20260509223150 60 316 11.0 16.0 0.00 0.00 0.00 38 1005.5
20260509222144 61 307 11.0 16.0 0.00 0.00 0.00 37 1005.4
20260509221645 61 290 9.0 17.0 0.00 0.00 0.00 38 1005.3
20260509221140 61 323 8.0 17.0 0.00 0.00 0.00 38 1005.3
20260509220640 62 265 8.0 17.0 0.00 0.00 0.00 36 1005.0
20260509220416 62 265 9.0 18.0 0.00 0.00 0.00 36 1005.1
20260509215636 62 279 10.0 18.0 0.00 0.00 0.00 36 1005.0
20260509215135 62 269 10.0 18.0 0.00 0.00 0.00 37 1004.9
20260509214637 62 292 10.0 18.0 0.00 0.00 0.00 35 1004.9
20260509214136 62 287 10.0 19.0 0.00 0.00 0.00 37 1004.9
20260509213639 62 280 10.0 19.0 0.00 0.00 0.00 39 1004.9
20260509213632 61 281 10.0 17.0 0.00 0.00 0.00 38 1004.8
20260509212630 61 252 10.0 18.0 0.00 0.00 0.00 39 1004.8
20260509212131 61 289 10.0 18.0 0.00 0.00 0.00 38 1004.7
20260509211629 62 302 11.0 19.0 0.00 0.00 0.00 39 1004.6
20260509211132 61 305 12.0 20.0 0.00 0.00 0.00 40 1004.7
20260509210630 61 296 12.0 20.0 0.00 0.00 0.00 41 1004.5
20260509210130 61 325 11.0 19.0 0.00 0.00 0.00 42 1004.4
20260509205625 60 305 12.0 21.0 0.00 0.00 0.00 42 1004.4
20260509205123 61 311 13.0 26.0 0.00 0.00 0.00 41 1004.1
20260509204625 61 314 14.0 26.0 0.00 0.00 0.00 41 1004.1
20260509204125 62 315 13.0 23.0 0.00 0.00 0.00 44 1004.0
20260509203625 61 298 12.0 24.0 0.00 0.00 0.00 41 1003.9
20260509203355 62 301 12.0 24.0 0.00 0.00 0.00 43 1003.9
20260509202624 61 302 11.0 22.0 0.00 0.00 0.00 46 1003.9
20260509202121 60 326 10.0 22.0 0.00 0.00 0.00 45 1003.9
20260509201619 61 271 10.0 22.0 0.00 0.00 0.00 43 1003.8
20260509201119 61 292 13.0 26.0 0.00 0.00 0.00 43 1003.7
20260509200620 61 319 14.0 26.0 0.00 0.00 0.00 44 1003.8
20260509200121 60 286 15.0 24.0 0.00 0.00 0.00 47 1003.7
20260509195620 59 314 14.0 24.0 0.00 0.00 0.00 45 1003.6
20260509195351 60 319 12.0 23.0 0.00 0.00 0.00 45 1003.6
20260509194615 61 291 10.0 20.0 0.00 0.00 0.00 45 1003.5
20260509194115 60 313 11.0 21.0 0.00 0.00 0.00 49 1003.5
20260509193612 59 281 10.0 21.0 0.00 0.00 0.00 46 1003.6
20260509193112 59 311 9.0 20.0 0.00 0.00 0.00 49 1003.5
20260509192611 59 322 10.0 19.0 0.00 0.00 0.00 50 1003.5
20260509192117 59 296 9.0 19.0 0.00 0.00 0.00 51 1003.4
20260509191837 59 300 9.0 15.0 0.00 0.00 0.00 50 1003.4
20260509191105 59 323 8.0 18.0 0.00 0.00 0.00 50 1003.4
20260509190605 60 277 7.0 18.0 0.00 0.00 0.00 48 1003.3
20260509190109 59 275 7.0 18.0 0.00 0.00 0.00 51 1003.2
20260509190105 60 241 8.0 18.0 0.00 0.00 0.00 50 1003.3
20260509185106 59 277 8.0 19.0 0.00 0.00 0.00 51 1003.2
20260509184600 59 294 9.0 19.0 0.00 0.00 0.00 52 1003.2
20260509184059 59 271 10.0 19.0 0.00 0.00 0.00 53 1003.2
20260509183559 59 322 9.0 19.0 0.00 0.00 0.00 52 1003.0
20260509183105 59 306 8.0 16.0 0.00 0.00 0.00 55 1002.9
20260509182830 58 263 8.0 16.0 0.00 0.00 0.00 58 1002.9
20260509182100 59 315 10.0 17.0 0.00 0.00 0.00 57 1002.9
20260509181555 59 281 10.0 20.0 0.00 0.00 0.00 57 1002.8
20260509181056 59 280 9.0 20.0 0.00 0.00 0.00 58 1002.7
20260509180553 59 267 8.0 19.0 0.00 0.00 0.00 56 1002.7
20260509180053 59 280 7.0 15.0 0.00 0.00 0.00 57 1002.6
20260509175825 59 273 9.0 22.0 0.00 0.00 0.00 56 1002.6
20260509174548 58 309 9.0 18.0 0.00 0.00 0.00 59 1002.6
20260509174048 57 272 9.0 17.0 0.00 0.00 0.00 59 1002.5
20260509173547 58 307 9.0 20.0 0.00 0.00 0.00 62 1002.6
20260509173047 58 286 9.0 20.0 0.00 0.00 0.00 61 1002.5
20260509172547 58 280 8.0 19.0 0.00 0.00 0.00 61 1002.5
20260509172049 58 306 7.0 19.0 0.00 0.00 0.00 63 1002.5
20260509171543 58 277 6.0 15.0 0.00 0.00 0.00 62 1002.5
20260509171315 58 300 6.0 15.0 0.00 0.00 0.00 62 1002.4
20260509170541 56 235 6.0 18.0 0.00 0.00 0.00 62 1002.4
20260509170042 55 312 7.0 18.0 0.00 0.00 0.00 63 1002.4
20260509165541 55 253 7.0 12.0 0.00 0.00 0.00 62 1002.4
20260509165042 55 269 9.0 16.0 0.00 0.00 0.00 61 1002.5
20260509164537 55 298 11.0 19.0 0.00 0.00 0.00 62 1002.4
20260509164035 55 304 9.0 19.0 0.00 0.00 0.00 62 1002.3
20260509163807 55 289 8.0 14.0 0.00 0.00 0.00 64 1002.2
20260509163035 55 262 9.0 15.0 0.00 0.00 0.00 64 1002.2
20260509162536 55 276 9.0 15.0 0.00 0.00 0.00 65 1002.2
20260509162036 55 304 9.0 15.0 0.00 0.00 0.00 63 1002.3
20260509161531 55 279 9.0 15.0 0.00 0.00 0.00 63 1002.2
20260509161029 55 328 8.0 14.0 0.00 0.00 0.00 62 1002.2
20260509160529 55 316 8.0 14.0 0.00 0.00 0.00 61 1002.2
20260509160300 55 304 8.0 13.0 0.00 0.00 0.00 61 1002.2
20260509155529 55 321 6.0 12.0 0.00 0.00 0.00 59 1002.1
20260509155031 54 326 5.0 10.0 0.00 0.00 0.00 59 1002.0
20260509154528 54 311 5.0 10.0 0.00 0.00 0.00 59 1002.0
20260509154029 54 310 5.0 10.0 0.00 0.00 0.00 58 1002.0
20260509153527 54 292 5.0 10.0 0.00 0.00 0.00 58 1002.0
20260509153028 54 314 6.0 12.0 0.00 0.00 0.00 59 1002.0
20260509152527 54 303 6.0 12.0 0.00 0.00 0.00 58 1001.9
20260509152306 54 311 6.0 10.0 0.00 0.00 0.00 57 1001.8
20260509151528 54 295 5.0 11.0 0.00 0.00 0.00 55 1001.8
20260509151023 54 288 5.0 11.0 0.00 0.00 0.00 56 1001.8
20260509150521 54 299 4.0 10.0 0.00 0.00 0.00 56 1001.8
20260509150021 54 287 5.0 11.0 0.00 0.00 0.00 56 1001.8
20260509145521 54 300 5.0 12.0 0.00 0.00 0.00 56 1001.7
20260509145021 54 315 5.0 12.0 0.00 0.00 0.00 56 1001.7
20260509144522 54 316 5.0 11.0 0.00 0.00 0.00 56 1001.7
20260509144018 53 330 5.0 11.0 0.00 0.00 0.00 56 1001.6
20260509143749 53 280 4.0 11.0 0.00 0.00 0.00 56 1001.7
20260509143019 53 297 5.0 13.0 0.00 0.00 0.00 56 1001.7
20260509142521 53 296 5.0 13.0 0.00 0.00 0.00 55 1001.6
20260509142020 54 275 4.0 10.0 0.00 0.00 0.00 55 1001.6
20260509141519 54 294 4.0 10.0 0.00 0.00 0.00 55 1001.7
20260509141022 54 296 5.0 10.0 0.00 0.00 0.00 55 1001.7
20260509140518 54 287 4.0 11.0 0.00 0.00 0.00 55 1001.7
20260509140017 54 300 4.0 11.0 0.00 0.00 0.00 55 1001.6
20260509135518 54 306 5.0 12.0 0.00 0.00 0.00 55 1001.6
20260509135019 53 312 3.0 10.0 0.00 0.00 0.00 56 1001.5
20260509135015 53 296 4.0 12.0 0.00 0.00 0.00 55 1001.5
20260509134015 53 298 4.0 10.0 0.00 0.00 0.00 56 1001.4
20260509133516 53 275 4.0 9.0 0.00 0.00 0.00 56 1001.2
20260509133245 53 305 4.0 10.0 0.00 0.00 0.00 55 1001.1
20260509132745 53 276 5.0 10.0 0.00 0.00 0.00 56 1001.1
20260509132016 53 283 4.0 10.0 0.00 0.00 0.00 56 1000.9
20260509131512 53 305 4.0 9.0 0.00 0.00 0.00 56 1000.8
20260509131006 53 309 4.0 10.0 0.00 0.00 0.00 56 1000.8
20260509130502 53 300 4.0 10.0 0.00 0.00 0.00 56 1000.7
20260509130001 53 304 4.0 10.0 0.00 0.00 0.00 57 1000.7
20260509125502 53 311 4.0 10.0 0.00 0.00 0.00 57 1000.7
20260509125001 53 296 4.0 10.0 0.00 0.00 0.00 57 1000.6
20260509124502 53 304 3.0 8.0 0.00 0.00 0.00 57 1000.4
20260509124233 53 311 3.0 8.0 0.00 0.00 0.00 58 1000.2
20260509123501 53 311 2.0 6.0 0.00 0.00 0.00 58 1000.0
20260509123456 53 325 3.0 7.0 0.00 0.00 0.00 58 1000.1
20260509122458 53 294 2.0 8.0 0.00 0.00 0.00 58 1000.1
20260509121957 53 300 3.0 9.0 0.00 0.00 0.00 58 1000.1
20260509121729 53 290 3.0 9.0 0.00 0.00 0.00 58 1000.3
20260509121229 52 290 3.0 7.0 0.00 0.00 0.00 57 1000.0
20260509120453 52 272 2.0 6.0 0.00 0.00 0.00 58 999.5
20260509115952 52 279 2.0 5.0 0.00 0.00 0.00 59 999.8
20260509115453 52 262 1.0 4.0 0.00 0.00 0.00 59 999.6
20260509114946 52 284 2.0 5.0 0.00 0.00 0.00 59 999.2
20260509114448 52 281 2.0 6.0 0.00 0.00 0.00 59 999.2
20260509113947 52 311 2.0 6.0 0.00 0.00 0.00 59 999.4
20260509113447 52 302 2.0 7.0 0.00 0.00 0.00 59 999.3
20260509112947 52 295 2.0 8.0 0.00 0.00 0.00 59 999.1
20260509112448 52 302 3.0 8.0 0.00 0.00 0.00 58 998.9
20260509111942 52 328 3.0 10.0 0.00 0.00 0.00 58 998.8
20260509111444 53 275 3.0 10.0 0.00 0.00 0.00 59 998.9
20260509110944 53 288 3.0 9.0 0.00 0.00 0.00 59 998.8
20260509110442 53 302 4.0 9.0 0.00 0.00 0.00 59 998.7
20260509105942 53 300 3.0 8.0 0.00 0.00 0.00 59 998.7
20260509105444 53 292 3.0 8.0 0.00 0.00 0.00 59 998.5
20260509104943 53 295 3.0 6.0 0.00 0.00 0.00 59 998.4
20260509104444 53 280 3.0 9.0 0.00 0.00 0.00 59 998.3
20260509103943 53 238 3.0 10.0 0.00 0.00 0.00 59 998.3
20260509103443 53 302 3.0 10.0 0.00 0.00 0.00 59 998.4
20260509102944 54 282 3.0 8.0 0.00 0.00 0.00 60 998.3
20260509102441 54 252 3.0 8.0 0.00 0.00 0.00 60 998.0
20260509102208 54 267 3.0 11.0 0.00 0.00 0.00 60 998.0
20260509101436 54 242 3.0 11.0 0.00 0.00 0.00 62 998.1
20260509101207 53 269 3.0 8.0 0.00 0.00 0.00 66 998.1
20260509100708 53 202 3.0 9.0 0.00 0.00 0.00 69 998.2
20260509095937 53 293 3.0 9.0 0.00 0.00 0.00 73 998.1
20260509095437 52 220 3.0 6.0 0.00 0.00 0.00 76 998.1
20260509094932 52 232 3.0 7.0 0.00 0.00 0.00 78 998.1
20260509093935 50 221 3.0 5.0 0.00 0.00 0.00 80 997.6
20260509093431 50 183 3.0 6.0 0.00 0.00 0.00 80 997.7
20260509092933 50 192 3.0 6.0 0.00 0.00 0.00 80 997.6
20260509092704 49 194 2.0 5.0 0.00 0.00 0.00 80 997.7
20260509092202 49 192 3.0 5.0 0.00 0.00 0.00 79 997.7
20260509091428 49 183 4.0 7.0 0.00 0.00 0.00 78 997.8
20260509090927 49 185 4.0 7.0 0.00 0.00 0.00 78 997.9
20260509090427 49 192 3.0 6.0 0.00 0.00 0.00 78 997.9
20260509090159 49 188 2.0 5.0 0.00 0.00 0.00 78 998.0
20260509085655 49 180 2.0 5.0 0.00 0.00 0.00 77 998.0
20260509084920 49 180 2.0 5.0 0.00 0.00 0.00 77 998.1
20260509084646 49 173 2.0 5.0 0.00 0.00 0.00 76 998.1
20260509083914 49 169 2.0 5.0 0.00 0.00 0.00 76 998.1
20260509083414 49 182 3.0 5.0 0.00 0.00 0.00 76 998.2
20260509082913 50 177 2.0 5.0 0.00 0.00 0.00 76 998.3
20260509082410 50 168 2.0 5.0 0.00 0.00 0.00 75 998.2
20260509081911 50 161 1.0 5.0 0.00 0.00 0.00 74 998.3
20260509081407 50 138 1.0 2.0 0.00 0.00 0.00 73 998.3
20260509080906 50 137 2.0 3.0 0.00 0.00 0.00 73 998.3
20260509080637 50 137 2.0 3.0 0.00 0.00 0.00 72 998.3
20260509075906 50 137 2.0 5.0 0.00 0.00 0.00 71 998.3
20260509075404 51 142 2.0 5.0 0.00 0.00 0.00 71 998.3
20260509074904 51 153 2.0 5.0 0.00 0.00 0.00 71 998.4
20260509074359 51 157 2.0 6.0 0.00 0.00 0.00 71 998.4
20260509073900 51 173 2.0 6.0 0.00 0.00 0.00 71 998.5
20260509073631 51 152 2.0 6.0 0.00 0.00 0.00 71 998.6
20260509072858 50 159 2.0 6.0 0.00 0.00 0.00 71 998.7
20260509072359 50 153 2.0 4.0 0.00 0.00 0.00 72 998.7
20260509071858 50 149 1.0 3.0 0.00 0.00 0.00 73 998.8
20260509071358 50 149 1.0 3.0 0.00 0.00 0.00 72 998.9
20260509070854 50 148 2.0 3.0 0.00 0.00 0.00 71 998.8
20260509070628 50 149 2.0 3.0 0.00 0.00 0.00 71 999.1
20260509065855 50 150 2.0 7.0 0.00 0.00 0.00 70 998.9
20260509065355 50 150 3.0 7.0 0.00 0.00 0.00 70 999.1
20260509064852 50 136 3.0 7.0 0.00 0.00 0.00 69 999.3
20260509064351 51 143 3.0 5.0 0.00 0.00 0.00 69 999.4
20260509064121 51 143 2.0 6.0 0.00 0.00 0.00 68 999.6